Погода в Васильевке

Россия / Оренбургская область     51°51′31″N   56°25′12″E
темп.,
°C
ветер,
м/с
пор.,
м/с
влажн.,
%
обл.,
%
осадки,
мм/ч
давл.,
гПа
погр.,
м
8 августа, пн
пн823:00+21св225350 0.0 101714
02:00+19всв22625 0.0 101823
05:00+19св226639 0.0 101840
08:00+22св2458100 0.0 1019193
11:00+27всв233850 0.0 10181384
14:00+30ссв2332100 0.0 10162407
17:00+27вюв4641100 0.0 1016210
20:00+25вюв2349100 0.1 101668
9 августа, вт
вт923:00+19в4879100 0.7 1017201
02:00+18св227943 0.0 101717
05:00+17св228064 0.0 101814
08:00+21всв23615 0.0 1019173
11:00+27всв34405 0.0 10181572
14:00+30св3431100 0.0 10172833
17:00+27в233834 0.0 1017420
20:00+25в474511 0.0 1017254
10 августа, ср
ср1023:00+20в33575 0.0 101836
02:00+19в116021 0.0 101811
05:00+17всв116512 0.0 101911
08:00+21в115116 0.0 1019145
11:00+28с113420 0.0 10191141
14:00+31ссз223054 0.0 10182758
17:00+30ссз333076 0.0 10172404
20:00+26вюв224382 0.0 101738
11 августа, чт
чт1123:00+22в115253 0.0 101811
02:00+21в225748 0.0 101811
05:00+20в11626 0.1 101811
08:00+23вюв11510 0.0 1019131
11:00+30зюз22330 0.0 10181268
14:00+32зсз3326100 0.0 10172965
17:00+30ссв233081 0.0 1016212
20:00+28в223777 0.0 101636
12 августа, пт
пт1223:00+23юв3347100 0.0 101635
02:00+22ссв3661100 0.1 1017183
05:00+20зсз1167100 0.1 101611
08:00+21з237095 0.8 1017158
11:00+27сз57440 0.9 1017945
14:00+30сз78335 0.0 10161871
17:00+28ссз7828100 0.0 10161748
20:00+22с69437 0.0 1018592